Location: Newark
(7.0858°N, 171.3717°E)
Time: 04:04:38
(UTC+00:00)

Vanguard 2 - Pass Details

Date: 27 November 2020
Orbit: 553 x 2937 km, 32.9° (Epoch: 26 January)

Event Time Altitude Azimuth Distance (km) Brightness Sun altitude
Rises 06:11:29 0° 304° (NW) 3,379 11.4 -0.1°
Reaches altitude 10° 06:13:32 10° 304° (NW) 2,640 10.8 -0.6°
Maximum altitude 06:19:57 90° 18° (NNE) 1,301 8.7 -2.0°
Drops below altitude 10° 06:31:07 10° 125° (SE) 4,411 11.1 -4.6°
Sets 06:35:32 0° 125° (SE) 5,786 11.7 -5.6°
